Satellite-Ground Cal/Val Region Overpasses Predictions

Prediction of Satellite NPP Overpassing Cal/Val Region: PacNW

Region Location: (Latitude: 10.00, Longitude: 139.50) to (Latitude: 22.70, Longitude: 165.60).

Table of predicted overpasses for the next 14.0 days since TLE Epoch: 10/28/2022
Interval Starting Time Starting Location Ending Time Ending Location
1 10/29/2022 02:40:18 ( 10.01, 159.81) 10/29/2022 02:43:54 ( 22.69, 156.79)
2 10/29/2022 15:12:11 ( 22.69, 157.06) 10/29/2022 15:15:47 ( 10.01, 154.04)
3 10/30/2022 02:21:16 ( 10.00, 164.58) 10/30/2022 02:24:52 ( 22.68, 161.56)
4 10/30/2022 14:53:10 ( 22.65, 161.81) 10/30/2022 14:56:45 ( 10.02, 158.80)
5 10/31/2022 03:43:44 ( 10.06, 143.95) 10/31/2022 03:47:19 ( 22.68, 140.94)
6 10/31/2022 14:35:15 ( 18.67, 165.59) 10/31/2022 14:37:42 ( 10.04, 163.57)
7 10/31/2022 16:15:37 ( 22.65, 141.20) 10/31/2022 16:17:35 ( 15.73, 139.51)
8 11/01/2022 03:24:42 ( 10.05, 148.71) 11/01/2022 03:28:17 ( 22.67, 145.71)
9 11/01/2022 15:56:35 ( 22.66, 145.96) 11/01/2022 16:00:10 ( 10.04, 142.95)
10 11/02/2022 03:05:40 ( 10.04, 153.48) 11/02/2022 03:09:15 ( 22.66, 150.47)
11 11/02/2022 15:37:32 ( 22.67, 150.72) 11/02/2022 15:41:07 ( 10.05, 147.72)
12 11/03/2022 02:46:37 ( 10.03, 158.24) 11/03/2022 02:50:12 ( 22.65, 155.23)
13 11/03/2022 15:18:30 ( 22.68, 155.49) 11/03/2022 15:22:05 ( 10.06, 152.48)
14 11/04/2022 02:27:35 ( 10.02, 163.00) 11/04/2022 02:31:10 ( 22.64, 160.00)
15 11/04/2022 14:59:27 ( 22.68, 160.25) 11/04/2022 15:03:03 ( 10.00, 157.23)
16 11/05/2022 02:11:09 ( 19.24, 165.60) 11/05/2022 02:12:08 ( 22.70, 164.74)
17 11/05/2022 03:50:02 ( 10.02, 142.39) 11/05/2022 03:53:29 ( 22.18, 139.50)
18 11/05/2022 14:40:25 ( 22.69, 165.01) 11/05/2022 14:44:01 ( 10.01, 161.99)
19 11/05/2022 16:21:55 ( 22.68, 139.63) 11/05/2022 16:22:04 ( 22.15, 139.50)
20 11/06/2022 03:31:00 ( 10.02, 147.15) 11/06/2022 03:34:36 ( 22.70, 144.13)
21 11/06/2022 16:02:52 ( 22.69, 144.40) 11/06/2022 16:06:28 ( 10.01, 141.38)
22 11/07/2022 03:11:57 ( 10.01, 151.91) 11/07/2022 03:15:33 ( 22.70, 148.89)
23 11/07/2022 15:43:50 ( 22.69, 149.16) 11/07/2022 15:47:26 ( 10.01, 146.14)
24 11/08/2022 02:52:55 ( 10.01, 156.68) 11/08/2022 02:56:31 ( 22.69, 153.66)
25 11/08/2022 15:24:47 ( 22.69, 153.92) 11/08/2022 15:28:23 ( 10.02, 150.90)
26 11/09/2022 02:33:52 ( 10.01, 161.44) 11/09/2022 02:37:28 ( 22.69, 158.42)
27 11/09/2022 15:05:45 ( 22.70, 158.68) 11/09/2022 15:09:21 ( 10.02, 155.66)
28 11/10/2022 02:15:35 ( 12.65, 165.59) 11/10/2022 02:18:26 ( 22.69, 163.18)
29 11/10/2022 03:56:20 ( 10.02, 140.82) 11/10/2022 03:57:57 ( 15.71, 139.50)
30 11/10/2022 14:46:43 ( 22.70, 163.45) 11/10/2022 14:50:19 ( 10.02, 160.43)
31 11/11/2022 03:37:17 ( 10.01, 145.59) 11/11/2022 03:40:53 ( 22.70, 142.57)
32 11/11/2022 14:30:46 ( 11.78, 165.59) 11/11/2022 14:31:16 ( 10.02, 165.19)
